CZ-2C DEB, 43534

Orbit data source: Space-Track

CZ-2C DEB, 43534 is space debris in SSO originally from a launch on Mon, 09 Jul 2018 UTC launched from the Jiuquan Satellite Launch Center, China (JSC). Debris objects in space refer to the collection of defunct objects orbiting the Earth. Examples of debris include non-operational satellites, rocket bodies, and fragments generated from explosions, collisions, or faulty payload assembly.

Loading next visibility...
Identifier
43534, 2018-056F
Orbit
SSO
Last TLE update
6 hours ago
Origin
Manufacturer
CAST?
Mission
Spacecraft
Bus & Motor
Unknown
Mass
~50 kg wet, ~50 kg dry
Launch date (UTC)
2018-07-09 (7 years ago)
Launch vehicle
Unknown
Launch site
Jiuquan Satellite Launch Center, China (JSC)
Object type
Payload
Rocket body
Debris
Shape & HBR
Cone, 2.9 m
Radar Cross Section
3.657 m², Large (>1 m²)

Expand to show TLE details & history

TLE from 6 hours ago
0 CZ-2C DEB
1 43534U 18056F   25182.16240469  .00010896  00000-0  54917-3 0  9992
2 43534  98.1030 339.1815 0016394 147.1677 213.0576 15.17243314380330
Epoch: 2025-07-01T03:53Z
TLE epoch observation values (Epoch: 2025-07-01T03:53:51.765Z)
Latitude
-0.00006°
Longitude
1.25401°
Altitude
526.72 km
Speed
7.594 km/s
True Right ascension
22h 36m 43s
True Declination
0° 00' 00"
Sunlit
Object was in full shadow at epoch
Visualization orbit readout
Latitude
-81.40701°
Longitude
111.9593°
Altitude
548.16 km
Speed
7.584 km/s
Apparent Right ascension
08h 53m 50s
Apparent Declination
-62° 48' 38"
Sunlit
Object is in daylight
Visualization observer readout
Local Sidereal Time
21:27:26
Azimuth
170.342° S
Elevation
-66.558°
Doppler factor
1
Orbital elements
Apogee altitude
522.471 km
Perigee altitude
499.883 km
Semi-major axis
6,889.314 km
Eccentricity
0.00164
Inclination
98.103°
RAAN
339.1815°
Arg. of periapsis
147.1677°
True anomaly
Unknown
Mean anomaly
213.0576°
Eccentric anomaly
Unknown
Mean motion
3.79559 °/min
Orbital period
94.85 mins
BSTAR
0.00054917
Loading maneuver chart data...
Loading SW <> Apogee altitude chart data...
Loading historical data...
Loading historical data...
Loading historical data...
Loading historical data...
Loading historical data...
Loading historical data...
Loading historical data...

CZ-2C DEB Visibility forecast

Observer location: undefined°, undefined°

Span
Click to sort rows by Start time (UTC) header in descending order
Start Az.
Max El. time (UTC)
Max El. Az.
Max El.
End time (UTC)
End Az.
7 mins2025-07-01 10:21:05.752Z158.621° S2025-07-01 10:24:05.752Z120.544° SE42.035°2025-07-01 10:28:05.752Z351.84° N
5 mins2025-07-01 23:28:05.752Z9.223° NNE2025-07-01 23:30:05.752Z318.972° NNW44.539°2025-07-01 23:33:05.752Z197.501° SSW
|